"2016-07-04 00:00:00",1778329,5.161,193.7,2.515,0.342,23.44,109.7372,24.22,25.26,21.22,0,111.3,13.01,25.06,155.7
"2016-07-04 00:00:30",1778330,5.169,196.7,4.074,0.328,23.5,109.7372,24.22,25.24,21.41,0,111.3,13.01,25.06,158.7
"2016-07-04 00:01:00",1778331,4.741,200.4,3.534,0.172,23.74,109.7372,24.22,25.25,20.59,0,111.3,13.01,25.06,162.4
"2016-07-04 00:01:30",1778332,4.083,200.5,3.84,0.198,23.6,109.7372,24.22,25.22,20.71,0,111.3,13.01,25.06,162.5
"2016-07-04 00:02:00",1778333,3.831,196.1,4.076,0.342,23.69,109.7372,24.22,25.22,20.55,0,111.3,13.01,25.06,158.1
"2016-07-04 00:02:30",1778334,4.313,196.7,2.761,0.384,23.6,109.7372,24.22,25.22,20.31,0,111.3,13.01,25.06,158.7
"2016-07-04 00:03:00",1778335,4.227,204.6,5.58,0.363,23.63,109.7372,24.22,25.23,21.02,0,111.3,13.01,25.06,166.6
"2016-07-04 00:03:30",1778336,5.109,201.6,5.897,0.621,23.35,109.7372,24.22,25.23,20.7,0,111.3,13.01,25.06,163.6
"2016-07-04 00:04:00",1778337,5.742,201.5,3.016,0.211,23.2,109.7372,24.22,25.23,21.16,0,111.3,13.01,25.06,163.5
"2016-07-04 00:04:30",1778338,5.668,197.7,4.797,0.328,23.21,109.7372,24.22,25.23,21.09,0,111.3,13.01,25.06,159.7
"2016-07-04 00:05:00",1778339,4.976,205,3.801,0.311,23.2,109.7372,24.22,25.23,20.87,0,111.3,13.01,25.06,167.0
"2016-07-04 00:05:30",1778340,4.626,204.8,2.8,0.528,23.34,109.7372,24.22,25.22,20.88,0,111.3,13.01,25.06,166.8
"2016-07-04 00:06:00",1778341,5.576,201.8,2.815,0.28,23.41,109.7372,24.22,25.22,21.24,0,111.3,13.01,25.06,163.8
"2016-07-04 00:06:30",1778342,4.706,212.2,8.2,0.581,23.74,109.7372,24.22,25.22,20.74,0,111.3,13.01,25.06,174.2
"2016-07-04 00:07:00",1778343,4.629,198.9,6.713,0.297,23.17,109.7372,24.22,25.21,20.63,0,111.3,13.01,25.06,160.9
"2016-07-04 00:07:30",1778344,4.245,195.2,2.613,0.465,23.19,109.7372,24.22,25.22,21.45,0,111.3,13.01,25.06,157.2
"2016-07-04 00:08:00",1778345,3.217,197.6,2.864,0.176,23.14,109.7372,24.22,25.22,21.07,0,111.3,13.01,25.06,159.6
"2016-07-04 00:08:30",1778346,3.224,192.9,5.161,0.445,23.16,109.7372,24.22,25.22,20.66,0,111.3,13.01,25.06,154.9
"2016-07-04 00:09:00",1778347,2.858,214.8,3.594,0.456,23.08,109.7372,24.22,25.22,20.38,0,111.3,13.01,25.06,176.8
"2016-07-04 00:09:30",1778348,2.87,214.1,5.009,0.203,23.26,109.7372,24.22,25.22,19.93,0,111.3,13.01,25.06,176.1
"2016-07-04 00:10:00",1778349,2.368,205.3,7.436,0.397,23.4,109.7408,24.23,25.23,19.66,0,111.3,13.01,25.07,167.3
"2016-07-04 00:10:30",1778350,3.07,216.9,6.001,0.609,23.28,109.7501,24.25,25.24,19.62,0,111.3,13.01,25.09,178.9
"2016-07-04 00:11:00",1778351,3.473,218,7.254,0.783,23.12,109.7641,24.29,25.26,20.18,0,111.3,13.01,25.13,180.0
"2016-07-04 00:11:30",1778352,5.086,208.6,6.655,0.622,23.06,109.7709,24.31,25.26,20.64,0,111.3,13.01,25.14,170.6
"2016-07-04 00:12:00",1778353,4.297,198,5.332,0.281,23.01,109.7709,24.31,25.26,20.98,0,111.3,13.01,25.14,160.0
"2016-07-04 00:12:30",1778354,5.035,209.6,6.957,0.368,22.97,109.7709,24.31,25.25,21.39,0,111.3,13.01,25.14,171.6
"2016-07-04 00:13:00",1778355,6.207,204.1,4.289,0.528,22.83,109.7709,24.31,25.25,21.61,0,111.3,13.01,25.14,166.1
"2016-07-04 00:13:30",1778356,6.77,211.8,3.976,0.276,22.9,109.7709,24.31,25.28,22.13,0,111.3,13.01,25.14,173.8
"2016-07-04 00:14:00",1778357,5.571,216.7,5.587,0.415,22.98,109.7754,24.32,25.27,21.9,0,111.3,13.01,25.15,178.7
"2016-07-04 00:14:30",1778358,5.342,221.5,4.497,0.348,23.09,109.7891,24.35,25.3,21.6,0,111.3,13.01,25.19,183.5
"2016-07-04 00:15:00",1778359,5.523,212.1,2.861,0.308,23.17,109.802,24.39,25.31,21.16,0,111.3,13.01,25.22,174.1
"2016-07-04 00:15:30",1778360,5.615,212.2,3.064,0.158,23.08,109.8046,24.39,25.31,21.2,0,111.3,13.01,25.23,174.2
"2016-07-04 00:16:00",1778361,5.841,213.9,2.76,0.193,22.96,109.8046,24.39,25.34,21.68,0,111.3,13.01,25.23,175.9
"2016-07-04 00:16:30",1778362,6.375,220.5,2.954,0.346,23.04,109.8046,24.39,25.34,21.95,0,111.3,13.01,25.23,182.5
"2016-07-04 00:17:00",1778363,7.136,218.8,2.295,0.178,22.98,109.8046,24.39,25.35,22.14,0,111.3,13.01,25.23,180.8
"2016-07-04 00:17:30",1778364,7.311,222.3,2.484,0.201,22.99,109.8074,24.4,25.36,22.64,0,111.3,13.01,25.24,184.3
"2016-07-04 00:18:00",1778365,6.967,219.6,2.203,0.217,23.02,109.8155,24.42,25.38,23.28,0,111.3,13.01,25.26,181.6
"2016-07-04 00:18:30",1778366,6.573,226.2,4.459,0.331,23.25,109.8133,24.41,25.39,21.82,0,111.3,13.01,25.25,188.2
"2016-07-04 00:19:00",1778367,6.427,225.9,3.863,0.234,23.24,109.8074,24.4,25.38,21.09,0,111.3,13.01,25.24,187.9
"2016-07-04 00:19:30",1778368,5.799,227,1.67,0.391,23.2,109.8054,24.39,25.37,21.33,0,111.3,13.01,25.23,189.0
"2016-07-04 00:20:00",1778369,5.868,230.4,2.589,0.317,23.23,109.8046,24.39,25.37,21.31,0,111.3,13.01,25.23,192.4
"2016-07-04 00:20:30",1778370,5.726,235.9,3.435,0.167,23.33,109.8046,24.39,25.37,21.04,0,111.3,13.01,25.23,197.9
"2016-07-04 00:21:00",1778371,6.019,234.3,1.791,0.291,23.24,109.8043,24.39,25.36,21.23,0,111.3,13.01,25.23,196.3
"2016-07-04 00:21:30",1778372,6.08,239,2.449,0.364,23.27,109.8046,24.39,25.37,20.87,0,111.3,13.01,25.23,201.0
"2016-07-04 00:22:00",1778373,6.562,233.5,4.314,0.245,23.18,109.8043,24.39,25.37,21.01,0,111.3,13.01,25.23,195.5
"2016-07-04 00:22:30",1778374,6.79,229.5,1.955,0.211,23.13,109.8037,24.39,25.38,21.42,0,111.3,13.01,25.23,191.5
"2016-07-04 00:23:00",1778375,6.684,232.2,3.183,0.24,23.28,109.804,24.39,25.35,21.21,0,111.3,13.01,25.23,194.2
"2016-07-04 00:23:30",1778376,6.627,240.5,3.928,0.236,23.35,109.8037,24.39,25.36,20.82,0,111.3,13.01,25.23,202.5
"2016-07-04 00:24:00",1778377,7.043,246.2,1.416,0.281,23.42,109.8046,24.39,25.36,20.1,0,111.3,13.01,25.23,208.2
"2016-07-04 00:24:30",1778378,7.479,240.9,3.668,0.341,23.33,109.8018,24.39,25.36,20.71,0,111.3,13.01,25.22,202.9
"2016-07-04 00:25:00",1778379,8,243.9,3.005,0.579,23.31,109.8012,24.38,25.34,21.01,0,111.3,13,25.22,205.9
"2016-07-04 00:25:30",1778380,8.03,244.1,2.549,0.387,23.31,109.8012,24.38,25.34,21.78,0,111.3,13.01,25.22,206.1
"2016-07-04 00:26:00",1778381,7.468,244.6,3.518,0.68,23.32,109.8005,24.38,25.34,21.79,0,111.3,13.01,25.22,206.6
"2016-07-04 00:26:30",1778382,7.358,246.1,3.112,0.415,23.36,109.7911,24.36,25.33,21.73,0,111.3,13,25.19,208.1
"2016-07-04 00:27:00",1778383,7.601,240.2,0.997,0.215,23.22,109.7847,24.34,25.33,22.48,0,111.3,13,25.18,202.2
"2016-07-04 00:27:30",1778384,7.149,243.9,2.811,0.238,23.37,109.7759,24.32,25.34,21.96,0,111.3,13,25.16,205.9
"2016-07-04 00:28:00",1778385,6.855,246,2.159,0.296,23.42,109.7721,24.31,25.32,20.59,0,111.3,13,25.15,208.0
"2016-07-04 00:28:30",1778386,7.243,246.8,4.926,0.482,23.49,109.7695,24.3,25.32,20.63,0,111.3,13,25.14,208.8
"2016-07-04 00:29:00",1778387,7.719,255,6.583,0.45,23.66,109.77,24.3,25.3,21,0,111.3,13,25.14,217.0
"2016-07-04 00:29:30",1778388,7.189,249.8,4.585,0.257,23.53,109.7666,24.29,25.3,20.88,0,111.3,13.01,25.13,211.8
"2016-07-04 00:30:00",1778389,7.351,253.3,3.778,0.293,23.58,109.7678,24.3,25.31,20.76,0,111.3,13.01,25.13,215.3
"2016-07-04 00:30:30",1778390,7.147,255.4,1.701,0.287,23.59,109.765,24.29,25.3,20.84,0,111.3,13.01,25.13,217.4
"2016-07-04 00:31:00",1778391,6.699,248.8,4.611,0.426,23.34,109.766,24.29,25.29,21.39,0,111.3,13.01,25.13,210.8
"2016-07-04 00:31:30",1778392,7.031,239,3.223,0.36,23.19,109.7641,24.29,25.29,22.34,0,111.3,13.01,25.13,201.0
"2016-07-04 00:32:00",1778393,6.693,243.4,2.483,0.286,23.34,109.7637,24.29,25.28,21.83,0,111.3,13.01,25.12,205.4
"2016-07-04 00:32:30",1778394,6.507,246.1,1.902,0.187,23.4,109.7653,24.29,25.3,21.44,0,111.3,13.01,25.13,208.1
"2016-07-04 00:33:00",1778395,6.323,244.2,4.988,0.373,23.39,109.7656,24.29,25.29,21.26,0,111.3,13.01,25.13,206.2
"2016-07-04 00:33:30",1778396,6.592,240.5,3.747,0.272,23.4,109.7656,24.29,25.3,21.36,0,111.3,13.01,25.13,202.5
"2016-07-04 00:34:00",1778397,6.773,240.4,1.229,0.314,23.39,109.7638,24.29,25.29,21.14,0,111.3,13.01,25.12,202.4
"2016-07-04 00:34:30",1778398,6.341,242.2,2.064,0.272,23.32,109.7655,24.29,25.3,21.44,0,111.3,13.01,25.13,204.2
"2016-07-04 00:35:00",1778399,6.491,244.8,3.991,0.414,23.4,109.7647,24.29,25.3,21.36,0,111.3,13.01,25.13,206.8
"2016-07-04 00:35:30",1778400,6.413,243.4,3.171,0.323,23.3,109.7657,24.29,25.29,21.85,0,111.3,13.01,25.13,205.4
"2016-07-04 00:36:00",1778401,6.747,247.6,3.712,0.256,23.39,109.7689,24.3,25.3,22.02,0,111.3,13.01,25.14,209.6
"2016-07-04 00:36:30",1778402,6.236,248.2,2.596,0.452,23.35,109.7696,24.3,25.3,21.58,0,111.3,13.01,25.14,210.2
"2016-07-04 00:37:00",1778403,6.495,240.6,3.168,0.216,23.21,109.7722,24.31,25.29,22.04,0,111.3,13.01,25.15,202.6
"2016-07-04 00:37:30",1778404,7.078,250.6,4.138,0.25,23.44,109.7704,24.3,25.29,21.92,0,111.3,13.01,25.14,212.6
"2016-07-04 00:38:00",1778405,7.567,247.5,3.129,0.437,23.42,109.7684,24.3,25.3,22.16,0,111.3,13.01,25.14,209.5
"2016-07-04 00:38:30",1778406,7.472,245.7,3.462,0.519,23.39,109.7667,24.3,25.29,22.32,0,111.3,13.01,25.13,207.7
"2016-07-04 00:39:00",1778407,7.447,238.3,1.797,0.305,23.37,109.7619,24.28,25.3,23.17,0,111.3,13.01,25.12,200.3
"2016-07-04 00:39:30",1778408,7.075,250.5,3.476,0.322,23.43,109.7628,24.29,25.3,22.78,0,111.3,13.01,25.12,212.5
"2016-07-04 00:40:00",1778409,6.382,260.1,2.045,0.458,23.5,109.7623,24.28,25.29,23.09,0,111.3,13.01,25.12,222.1
"2016-07-04 00:40:30",1778410,7.622,255.2,3.261,1.038,23.52,109.7623,24.28,25.29,22.85,0,111.3,13.01,25.12,217.2
"2016-07-04 00:41:00",1778411,8.7,254.2,1.859,0.303,23.62,109.7623,24.28,25.28,23.26,0,111.3,13.01,25.12,216.2
"2016-07-04 00:41:30",1778412,9.12,251,4.424,0.438,23.54,109.7623,24.28,25.26,23.47,0,111.3,13.01,25.12,213.0
"2016-07-04 00:42:00",1778413,7.993,245.9,5.898,0.314,23.51,109.7635,24.29,25.27,22.96,0,111.3,13.01,25.12,207.9
"2016-07-04 00:42:30",1778414,7.567,253.1,1.768,0.189,23.54,109.7614,24.28,25.26,22.85,0,111.3,13.01,25.12,215.1
"2016-07-04 00:43:00",1778415,7.339,247.5,1.912,0.142,23.47,109.7503,24.25,25.25,23.24,0,111.3,13,25.09,209.5
"2016-07-04 00:43:30",1778416,7.993,258.3,3.765,0.398,23.71,109.7376,24.22,25.25,22.51,0,111.3,13,25.06,220.3
"2016-07-04 00:44:00",1778417,7.992,254.6,4.721,0.46,23.63,109.732,24.21,25.23,22.61,0,111.3,13,25.04,216.6
"2016-07-04 00:44:30",1778418,7.637,248.3,1.875,0.184,23.48,109.7313,24.2,25.21,23.84,0,111.3,13,25.04,210.3
"2016-07-04 00:45:00",1778419,8.38,248.4,1.938,0.389,23.55,109.7295,24.2,25.2,23.43,0,111.3,13,25.04,210.4
"2016-07-04 00:45:30",1778420,8.12,256.5,2.738,0.179,23.67,109.7299,24.2,25.19,22.74,0,111.3,13,25.04,218.5
"2016-07-04 00:46:00",1778421,8.3,259.7,1.577,0.251,23.72,109.7127,24.16,25.17,22.25,0,111.3,13,24.99,221.7
"2016-07-04 00:46:30",1778422,7.662,260.9,2.891,0.279,23.68,109.7029,24.13,25.17,22.19,0,111.3,13,24.97,222.9
"2016-07-04 00:47:00",1778423,7.64,254.8,2.783,0.267,23.67,109.7017,24.13,25.14,22.35,0,111.3,13,24.96,216.8
"2016-07-04 00:47:30",1778424,7.658,253.6,2.448,0.174,23.66,109.7023,24.13,25.13,22.6,0,111.3,13.01,24.97,215.6
"2016-07-04 00:48:00",1778425,8.7,260,2.871,0.474,23.69,109.7029,24.13,25.12,23.2,0,111.3,13.01,24.97,222.0
"2016-07-04 00:48:30",1778426,8.59,259,2.526,0.258,23.74,109.6883,24.09,25.11,23.28,0,111.3,13.01,24.93,221.0
"2016-07-04 00:49:00",1778427,8.31,258.2,4.086,0.462,23.77,109.6737,24.06,25.1,23.28,0,111.3,13.01,24.89,220.2
"2016-07-04 00:49:30",1778428,8.53,258,3.103,0.326,23.77,109.6695,24.05,25.08,22.98,0,111.3,13.01,24.88,220.0
"2016-07-04 00:50:00",1778429,7.863,260.3,2.386,0.554,23.73,109.6698,24.05,25.06,23.03,0,111.3,13.01,24.88,222.3
"2016-07-04 00:50:30",1778430,7.638,250.1,3.303,0.236,23.64,109.6698,24.05,25.06,23.17,0,111.3,13.01,24.88,212.1
"2016-07-04 00:51:00",1778431,7.536,256.7,5.64,0.293,23.73,109.6692,24.04,25.05,23.32,0,111.3,13.01,24.88,218.7
"2016-07-04 00:51:30",1778432,7.953,263,2.307,0.617,23.78,109.6546,24.01,25.05,22.95,0,111.3,13.01,24.84,225.0
"2016-07-04 00:52:00",1778433,7.534,255.2,4.084,0.251,23.75,109.6414,23.97,25.02,23.03,0,111.3,13.01,24.81,217.2
"2016-07-04 00:52:30",1778434,7.859,260,6.287,0.555,23.83,109.6364,23.96,25,23.57,0,111.3,13.01,24.80,222.0
"2016-07-04 00:53:00",1778435,7.923,260.6,2.553,0.408,23.88,109.6361,23.96,24.99,23.78,0,111.3,13.01,24.80,222.6
"2016-07-04 00:53:30",1778436,8.48,254.3,4.836,0.477,24.01,109.635,23.96,24.98,23.31,0,111.3,13.01,24.79,216.3
"2016-07-04 00:54:00",1778437,7.598,261,5.244,0.398,23.96,109.6187,23.91,24.96,22.84,0,111.3,13.01,24.75,223.0
"2016-07-04 00:54:30",1778438,8.55,259.5,1.888,0.4,24.03,109.6094,23.89,24.95,23.46,0,111.3,13.01,24.73,221.5
"2016-07-04 00:55:00",1778439,7.313,259.8,4.315,0.528,23.98,109.603,23.87,24.94,23.9,0,111.3,13.01,24.71,221.8
"2016-07-04 00:55:30",1778440,8.44,270.8,3.027,0.311,24.08,109.6024,23.87,24.91,22.77,0,111.3,13.01,24.71,232.8
"2016-07-04 00:56:00",1778441,8.18,260.1,3.154,0.316,24.03,109.6013,23.87,24.9,22.12,0,111.3,13.01,24.71,222.1
"2016-07-04 00:56:30",1778442,8.12,265.8,3.051,0.332,24.03,109.5901,23.84,24.9,22.23,0,111.3,13.01,24.68,227.8
"2016-07-04 00:57:00",1778443,8.27,262.6,1.885,0.534,23.92,109.5791,23.81,24.87,22.19,0,111.3,13.01,24.65,224.6
"2016-07-04 00:57:30",1778444,8.94,261.7,1.238,0.242,23.95,109.5735,23.8,24.86,22.13,0,111.3,13.01,24.63,223.7
"2016-07-04 00:58:00",1778445,8.49,254,3.826,0.302,23.77,109.5698,23.79,24.84,22.2,0,111.3,13.01,24.62,216.0
"2016-07-04 00:58:30",1778446,8.48,254.6,2.122,0.445,23.69,109.5687,23.79,24.85,22.96,0,111.2,13.01,24.62,216.6
"2016-07-04 00:59:00",1778447,8.31,256.5,2.042,0.366,23.79,109.5687,23.79,24.83,22.41,0,111.2,13.01,24.62,218.5
"2016-07-04 00:59:30",1778448,9.05,257.9,2.638,0.461,23.81,109.5687,23.79,24.83,22.04,0,111.3,13.01,24.62,219.9
"2016-07-04 01:00:00",1778449,8.9,260.8,2.106,0.349,23.76,109.5687,23.79,24.81,22.35,0,111.3,13.01,24.62,222.8
"2016-07-04 01:00:30",1778450,8.64,259,2.131,0.357,23.69,109.5687,23.79,24.8,23.21,0,111.2,13.01,24.62,221.0
"2016-07-04 01:01:00",1778451,9.54,265.2,1.546,0.265,23.8,109.5687,23.79,24.8,21.86,0,111.2,13.01,24.62,227.2
"2016-07-04 01:01:30",1778452,9.22,264.6,0.88,0.403,23.77,109.5687,23.79,24.8,21.28,0,111.2,13.01,24.62,226.6
"2016-07-04 01:02:00",1778453,9.64,264.1,2.167,0.387,23.75,109.569,23.79,24.81,21.58,0,111.2,13.01,24.62,226.1
"2016-07-04 01:02:30",1778454,9.34,262,1.456,0.404,23.73,109.5687,23.79,24.79,22.04,0,111.2,13.01,24.62,224.0
"2016-07-04 01:03:00",1778455,9.22,257.3,3.428,0.361,23.71,109.569,23.79,24.79,22.4,0,111.2,13.01,24.62,219.3
"2016-07-04 01:03:30",1778456,9.31,257,1.64,0.362,23.71,109.569,23.79,24.8,22.59,0,111.2,13.01,24.62,219.0
"2016-07-04 01:04:00",1778457,8.87,259.3,1.908,0.298,23.71,109.5693,23.79,24.8,22.5,0,111.2,13.01,24.62,221.3
"2016-07-04 01:04:30",1778458,8.76,252.4,3.358,0.244,23.56,109.5706,23.79,24.8,23.31,0,111.2,13.01,24.63,214.4
"2016-07-04 01:05:00",1778459,9.41,249.9,2.32,0.345,23.59,109.5727,23.8,24.8,23.38,0,111.2,13.01,24.63,211.9
"2016-07-04 01:05:30",1778460,9.33,258.2,2.143,0.369,23.82,109.573,23.8,24.8,21.89,0,111.2,13.01,24.63,220.2
"2016-07-04 01:06:00",1778461,9.29,251.9,4.798,0.489,23.62,109.577,23.81,24.8,22.44,0,111.2,13.01,24.64,213.9
"2016-07-04 01:06:30",1778462,9.14,251.9,2.149,0.349,23.56,109.5773,23.81,24.79,23.06,0,111.2,13.01,24.64,213.9
"2016-07-04 01:07:00",1778463,9.08,250.5,2.529,0.338,23.53,109.5781,23.81,24.78,23.27,0,111.2,13.01,24.65,212.5
"2016-07-04 01:07:30",1778464,9.43,250.8,1.413,0.308,23.6,109.5779,23.81,24.79,22.98,0,111.2,13.02,24.65,212.8
"2016-07-04 01:08:00",1778465,9.55,253.9,2.319,0.282,23.66,109.5793,23.81,24.78,22.65,0,111.2,13.02,24.65,215.9
"2016-07-04 01:08:30",1778466,9.41,256.8,1.423,0.183,23.76,109.5748,23.8,24.77,22.6,0,111.2,13.02,24.64,218.8
"2016-07-04 01:09:00",1778467,9.73,256,1.049,0.099,23.72,109.5726,23.8,24.77,22.52,0,111.2,13.02,24.63,218.0
"2016-07-04 01:09:30",1778468,9.28,256.4,0.77,0.216,23.75,109.5656,23.78,24.75,22.51,0,111.2,13.02,24.61,218.4
"2016-07-04 01:10:00",1778469,9.56,259.2,1.646,0.217,24.01,109.5647,23.78,24.76,21.53,0,111.2,13.02,24.61,221.2
"2016-07-04 01:10:30",1778470,9.71,257,1.228,0.24,23.89,109.5644,23.78,24.75,21.45,0,111.2,13.02,24.61,219.0
"2016-07-04 01:11:00",1778471,9.35,257.7,0.945,0.242,23.93,109.5639,23.77,24.76,21.24,0,111.2,13.01,24.61,219.7
"2016-07-04 01:11:30",1778472,9.23,257.6,1.066,0.298,23.93,109.5683,23.79,24.76,21,0,111.2,13.02,24.62,219.6
"2016-07-04 01:12:00",1778473,9.23,261.6,1.299,0.192,23.96,109.5771,23.81,24.75,20.69,0,111.2,13.02,24.64,223.6
"2016-07-04 01:12:30",1778474,9.06,259.9,2.346,0.279,23.92,109.5881,23.84,24.76,20.64,0,111.2,13.01,24.67,221.9
"2016-07-04 01:13:00",1778475,9.51,254,2.2,0.369,23.71,109.592,23.85,24.76,21.49,0,111.2,13.01,24.68,216.0
"2016-07-04 01:13:30",1778476,9.39,249.9,2.784,0.457,23.68,109.5949,23.85,24.77,21.54,0,111.2,13.01,24.69,211.9
"2016-07-04 01:14:00",1778477,9.1,250.7,3.42,0.359,23.66,109.5958,23.86,24.78,21.52,0,111.2,13.02,24.69,212.7
"2016-07-04 01:14:30",1778478,9.33,253.2,3.8,0.222,23.79,109.5958,23.86,24.78,21.71,0,111.2,13.02,24.69,215.2
"2016-07-04 01:15:00",1778479,9.77,256.2,3.254,0.344,23.83,109.5964,23.86,24.78,21.1,0,111.2,13.02,24.69,218.2
"2016-07-04 01:15:30",1778480,9.55,254.8,2.507,0.312,23.74,109.5964,23.86,24.79,21.33,0,111.2,13.02,24.69,216.8
"2016-07-04 01:16:00",1778481,10.32,257.3,2.23,0.326,23.88,109.5964,23.86,24.8,21.34,0,111.2,13.02,24.69,219.3
"2016-07-04 01:16:30",1778482,9.44,256.5,2.466,0.434,23.71,109.5958,23.86,24.8,21.78,0,111.2,13.02,24.69,218.5
"2016-07-04 01:17:00",1778483,9.2,255.9,2.226,0.418,23.69,109.5964,23.86,24.81,22.36,0,111.2,13.01,24.69,217.9
"2016-07-04 01:17:30",1778484,10.13,260.5,1.025,0.335,23.9,109.5964,23.86,24.81,21.39,0,111.2,13.01,24.69,222.5
"2016-07-04 01:18:00",1778485,9.56,255.9,2.549,0.305,23.84,109.5967,23.86,24.8,21.52,0,111.2,13.01,24.69,217.9
"2016-07-04 01:18:30",1778486,9.98,254.5,2.52,0.464,23.77,109.5964,23.86,24.8,22.1,0,111.2,13.01,24.69,216.5
"2016-07-04 01:19:00",1778487,10.48,257.6,1.328,0.259,23.97,109.597,23.86,24.81,21.19,0,111.2,13.01,24.69,219.6
"2016-07-04 01:19:30",1778488,11.01,260.1,2.971,0.346,23.87,109.5973,23.86,24.82,21.57,0,111.2,13.01,24.70,222.1
"2016-07-04 01:20:00",1778489,10.1,261.3,3.411,0.262,23.9,109.5986,23.86,24.81,21.46,0,111.2,13.01,24.70,223.3
"2016-07-04 01:20:30",1778490,9.73,261.2,1.273,0.23,23.94,109.5992,23.86,24.82,21.32,0,111.2,13.01,24.70,223.2
"2016-07-04 01:21:00",1778491,10.03,259.3,1.471,0.262,23.91,109.5986,23.86,24.81,21.35,0,111.2,13.01,24.70,221.3
"2016-07-04 01:21:30",1778492,10.12,259.6,2.157,0.274,23.92,109.5986,23.86,24.81,21.47,0,111.2,13.01,24.70,221.6
"2016-07-04 01:22:00",1778493,9.83,258.6,1.576,0.348,23.92,109.597,23.86,24.81,21.53,0,111.2,13.02,24.69,220.6
"2016-07-04 01:22:30",1778494,10.11,258.3,2.328,0.327,23.97,109.5972,23.86,24.81,21.38,0,111.2,13.02,24.69,220.3
"2016-07-04 01:23:00",1778495,10.03,257.8,2.561,0.555,23.96,109.5957,23.86,24.8,21.36,0,111.2,13.02,24.69,219.8
"2016-07-04 01:23:30",1778496,11.55,258.2,2.291,0.618,23.89,109.5914,23.84,24.81,21.72,0,111.2,13.02,24.68,220.2
"2016-07-04 01:24:00",1778497,10.13,256.8,3.159,0.521,23.94,109.5907,23.84,24.79,21.58,0,111.2,13.02,24.68,218.8
"2016-07-04 01:24:30",1778498,10.12,260,2.795,0.431,23.99,109.5882,23.84,24.79,21.29,0,111.2,13.02,24.67,222.0
"2016-07-04 01:25:00",1778499,10.7,258.8,3.355,0.479,23.94,109.5868,23.83,24.79,21.46,0,111.2,13.02,24.67,220.8
"2016-07-04 01:25:30",1778500,10.71,260.4,3.018,0.558,23.92,109.5837,23.83,24.78,21.7,0,111.2,13.02,24.66,222.4
"2016-07-04 01:26:00",1778501,9.65,259.9,3.966,0.27,23.84,109.5775,23.81,24.8,21.48,0,111.2,13.02,24.64,221.9
"2016-07-04 01:26:30",1778502,9.85,261.2,3.425,0.507,23.79,109.5748,23.8,24.77,22.03,0,111.2,13.02,24.64,223.2
"2016-07-04 01:27:00",1778503,10.33,256.6,3.013,0.691,23.82,109.5731,23.8,24.79,22.04,0,111.2,13.02,24.63,218.6
"2016-07-04 01:27:30",1778504,10.83,260.2,2.619,0.456,23.78,109.572,23.79,24.78,22.36,0,111.2,13.02,24.63,222.2
"2016-07-04 01:28:00",1778505,11.15,263.1,1.684,0.393,23.78,109.572,23.79,24.78,22.62,0,111.2,13.02,24.63,225.1
"2016-07-04 01:28:30",1778506,10.4,257.6,2.307,0.681,23.81,109.572,23.79,24.77,22.71,0,111.2,13.02,24.63,219.6
"2016-07-04 01:29:00",1778507,10.25,256.7,2.071,0.214,23.88,109.5717,23.79,24.76,22.47,0,111.2,13.02,24.63,218.7
"2016-07-04 01:29:30",1778508,10.74,259,1.773,0.417,23.95,109.5613,23.77,24.74,22.73,0,111.2,13.02,24.60,221.0
"2016-07-04 01:30:00",1778509,11.01,260.8,3.776,0.369,23.87,109.5425,23.72,24.74,22.56,0,111.2,13.02,24.55,222.8
"2016-07-04 01:30:30",1778510,10.93,268.2,3.383,0.575,24.1,109.5382,23.71,24.72,21.74,0,111.2,13.02,24.54,230.2
"2016-07-04 01:31:00",1778511,10.13,261.9,2.977,0.697,23.86,109.5382,23.71,24.72,22.03,0,111.2,13.02,24.54,223.9
"2016-07-04 01:31:30",1778512,11.08,257.2,1.944,0.48,23.84,109.5382,23.71,24.71,23.01,0,111.2,13.02,24.54,219.2
"2016-07-04 01:32:00",1778513,10.49,262.5,3.989,0.69,23.94,109.538,23.71,24.7,22.21,0,111.2,13.02,24.54,224.5
"2016-07-04 01:32:30",1778514,10.63,261.2,2.298,0.444,24.02,109.5352,23.7,24.69,21.85,0,111.2,13.02,24.54,223.2
"2016-07-04 01:33:00",1778515,10.65,260.9,2.423,0.305,24.09,109.5315,23.69,24.68,21.74,0,111.2,13.02,24.53,222.9
"2016-07-04 01:33:30",1778516,10.81,260.2,2.616,0.349,24.03,109.5231,23.67,24.67,21.87,0,111.2,13.02,24.50,222.2
"2016-07-04 01:34:00",1778517,10.54,262.6,3.302,0.418,23.95,109.5149,23.65,24.66,22.29,0,111.2,13.02,24.48,224.6
"2016-07-04 01:34:30",1778518,11.38,262.3,1.995,0.199,24.07,109.5085,23.63,24.65,22.01,0,111.2,13.02,24.47,224.3
"2016-07-04 01:35:00",1778519,10.95,261.7,2.934,0.313,24.15,109.5051,23.62,24.65,21.95,0,111.2,13.02,24.46,223.7
"2016-07-04 01:35:30",1778520,10.23,261.7,3.156,0.72,24.17,109.5045,23.62,24.64,21.86,0,111.2,13.02,24.46,223.7
"2016-07-04 01:36:00",1778521,10.27,254.6,1.64,0.412,24.2,109.5045,23.62,24.64,21.75,0,111.2,13.02,24.46,216.6
"2016-07-04 01:36:30",1778522,10.31,257.5,1.995,0.408,24.19,109.504,23.62,24.63,22.05,0,111.2,13.02,24.45,219.5
"2016-07-04 01:37:00",1778523,9.96,258.9,1.841,0.233,24.16,109.5023,23.62,24.61,21.84,0,111.2,13.02,24.45,220.9
"2016-07-04 01:37:30",1778524,10.41,262.7,1.488,0.479,24.07,109.4967,23.6,24.61,21.79,0,111.2,13.02,24.44,224.7
"2016-07-04 01:38:00",1778525,10.56,263.3,1.616,0.118,24,109.4829,23.57,24.58,21.87,0,111.2,13.02,24.40,225.3
"2016-07-04 01:38:30",1778526,10.73,262.4,1.296,0.258,23.97,109.479,23.56,24.6,21.97,0,111.2,13.02,24.39,224.4
"2016-07-04 01:39:00",1778527,11.08,264.8,3.424,0.502,24.01,109.477,23.55,24.59,21.94,0,111.2,13.02,24.39,226.8
"2016-07-04 01:39:30",1778528,10.48,258.8,1.385,0.304,23.99,109.4736,23.54,24.59,22.37,0,111.2,13.02,24.38,220.8
"2016-07-04 01:40:00",1778529,10.84,258.4,1.055,0.252,23.94,109.4712,23.54,24.57,22.68,0,111.2,13.02,24.37,220.4
"2016-07-04 01:40:30",1778530,11.24,261.6,3.991,0.328,23.89,109.4708,23.54,24.58,22.96,0,111.2,13.03,24.37,223.6
"2016-07-04 01:41:00",1778531,11.02,266.5,1.813,0.358,23.89,109.4721,23.54,24.56,22.58,0,111.2,13.03,24.37,228.5
"2016-07-04 01:41:30",1778532,11.32,260.1,2.305,0.285,24.03,109.4724,23.54,24.56,22.49,0,111.2,13.03,24.37,222.1
"2016-07-04 01:42:00",1778533,10.65,262.5,2.657,0.51,24.04,109.473,23.54,24.56,22.56,0,111.2,13.03,24.37,224.5
"2016-07-04 01:42:30",1778534,11.22,264,1.842,0.498,23.9,109.4756,23.55,24.55,22.66,0,111.2,13.03,24.38,226.0
"2016-07-04 01:43:00",1778535,11.37,261.9,0.948,0.255,23.96,109.4661,23.52,24.55,22.96,0,111.2,13.03,24.36,223.9
"2016-07-04 01:43:30",1778536,10.96,260.4,1.492,0.489,23.97,109.4584,23.5,24.53,23.07,0,111.2,13.03,24.34,222.4
"2016-07-04 01:44:00",1778537,10.6,260.6,2.268,0.383,23.97,109.4556,23.5,24.51,22.87,0,111.2,13.03,24.33,222.6
"2016-07-04 01:44:30",1778538,11.34,262,2.072,0.51,23.99,109.458,23.5,24.5,22.83,0,111.2,13.03,24.34,224.0
"2016-07-04 01:45:00",1778539,11.09,266.7,3.942,0.378,23.96,109.4605,23.51,24.5,22.58,0,111.2,13.03,24.34,228.7
"2016-07-04 01:45:30",1778540,10.73,269.1,3.603,0.464,23.79,109.463,23.51,24.49,22.84,0,111.2,13.03,24.35,231.1
"2016-07-04 01:46:00",1778541,11.11,268.9,3.179,0.401,23.87,109.4585,23.5,24.47,22.86,0,111.2,13.03,24.34,230.9
"2016-07-04 01:46:30",1778542,12.41,264.4,3.87,0.447,23.92,109.4459,23.47,24.47,22.56,0,111.2,13.03,24.30,226.4
"2016-07-04 01:47:00",1778543,12.03,268.1,4.911,0.649,23.97,109.4406,23.46,24.45,22.46,0,111.2,13.03,24.29,230.1